Погода Чулпаново

Погода Чулпаново : погода сейчас, прогноз погоды и архив. Всё, что Вы хотите узнать о погоде Чулпаново!

Поиск расширенной информации на нашем сайте:

Другие новости

Новости СМИ2

Главная страница сайта

Новости сайта

03.07.2017

Напоминаем, что на нашем специализированном сайте Метеоцентр.Азия вы можете получить высокодетализированные автоматические прогнозы погоды по пунктам России, СНГ и мира в авиационном формате (включающие направление и скорость ветра, видимость, явления погоды, количество и форму облачности, нижнюю и верхнюю границу облачности).

Рекомендуем: Читайте болюсы хуато инструкция здесь!

Погода Чулпаново - сегодня

Время (UTC), дата Ветер
(°,м/с) 
Видим.   Явления Облачность Т
(°С)
Тd
(°С)
f(%) Тe
(°С)
Pmin
(гПа)
dP
(гПа)
Po
(мм)
O2
(г/м3)
Тmin Tmax R s Состояние
почвы
00 19.09.17 040 (СВ) 20000 м    ясно 
+8.2 +7.3 94 +9  1015.3  -0.5  754  294           
03 19.09.17 160 (Ю) 20000 м    4/0 верхняя 
[Ci fib]
+9 +6.8 86 +10  1014.8  -0.5  754  293  +8        сухая 
06 19.09.17 190 (Ю) 7-11{11}  20000 м    3/0 верхняя 
[Ci fib]
+24.2 +9.4 39 +25  1013.5  -0.8  753  277           
09 19.09.17 210 (ЮЗ) 9-14{15}  20000 м    ясно 
+28.6 +7.7 27 +29  1012.9  -0.5  753  273           
12 19.09.17 200 (Ю) 10-15{17}  20000 м    10/0 верхняя 
[Ci fib]
+28.9 +7.3 26 +29  1012.5  -0.4  753  273           
15 19.09.17 210 (ЮЗ) 3{15}  20000 м    10/0 средняя, верхняя 
[Ac trans|Ci sp]
+22.7 +8.4 40 +23  1012.9  0.3  753  279    +29.5       
18 19.09.17 230 (ЮЗ) 20000 м    10/0 средняя, верхняя 
[Ac trans|Ci fib]
+16.9 +9.4 61 +18  1014.8  1.7  754  285           
21 19.09.17 270 (З) 20000 м    4/0 верхняя 
[Ci fib]
+15.9 +8.9 63 +17  1016.7  1.8  756  286           
00 20.09.17 тихо ()   20000 м    3/0 верхняя 
[Ci sp]
+11 +6.5 74 +11  1018.6  1.7  757  292           
03 20.09.17 210 (ЮЗ) 20000 м    1/0 верхняя 
[Ci sp]
+6.1 +4.7 91 +7  1020  1.2  758  298  +5.7        сухая 
06 20.09.17 290 (З) 20000 м    3/0 верхняя 
[Ci fib]
+15.1 +7.3 60 +15  1021.2  1.4  759  289           
09 20.09.17 300 (СЗ) 20000 м    4/0 средняя, верхняя 
[Ac trans|Ci fib]
+18.2 +6.9 48 +19  1021.2  0.1  759  286           
12 20.09.17 290 (З) 20000 м    3/0 верхняя 
[Ci fib]
+19.4 +5.8 41 +20  1021.3  0.1  759  285           
15 20.09.17 310 (СЗ) 20000 м    3/0 верхняя 
[Ci fib]
+13 +7.9 71 +14  1022.1  0.6  760  291    +19.6       
18 20.09.17 250 (З) 20000 м    ясно 
+7.2 +5.9 91 +8  1023.7  1.4  761  298           
21 20.09.17 300 (СЗ) 20000 м    ясно 
+7 +6.1 94 +7  1024.3  0.5  761  298           
00 21.09.17 290 (З) н/о    н/о 
+6.1 +5.3 95 +6  1024.9  0.6  761  299           
03 21.09.17 310 (СЗ) 10 км    ясно 
+1.6 +0.7 94 +2  1026.1  1.1  762  305  +1.2        сухая 
06 21.09.17 020 (С) 20000 м    3/0 верхняя 
[Ci fib]
+13.6 +8.4 71 +15  1026.6  0.9  763  291           
09 21.09.17 340 (С) 20000 м    8/0 средняя, верхняя 
[Ac trans|Ci fib]
+16.2 +7.3 56 +17  1025.9  -0.5  763  289           
12 21.09.17 350 (С) 20000 м    10/0 средняя, верхняя 
[Ac As|Ci sp]
+15.1 +7.7 61 +15  1026.4  0.5  763  290           
15 21.09.17 330 (СЗ) 20000 м    10/0 средняя, верхняя 
[Ac As|Ci sp]
+11.7 +7.6 76 +12  1027.1  0.6  763  294    +17       
18 21.09.17 010 (С) 20000 м    10/0 средняя 
[Ac As]
+10.7 +5.7 71 +10  1028.3  1.2  764  295           
21 21.09.17 020 (С) 3{11}  20000 м    10/0 средняя 
[Ac As]
+8.4 +3.1 69 +8  1029.5  765  299           
00 22.09.17 350 (С) 20000 м    10/0 средняя 
[Ac As]
+7.2 +3.2 76 +6  1030.1  0.6  765  300           
Время (UTC), дата Ветер
(°,м/с) 
Видим.   Явления Облачность Т
(°С)
Тd
(°С)
f(%) Тe
(°С)
Pmin
(гПа)
dP
(гПа)
Po
(мм)
O2
(г/м3)
Тmin Tmax R s Состояние
почвы

Для получения пояснительной информации подведите курсор к названию столбца.

ПОГОДА Чулпаново - архив

Всё, что Вы хотите узнать о погоде Чулпаново - удобно и подробно!

Выберите нужную дату (начиная с 1 января 2015* года) и нажмите кнопку "Найти".
Будут отображены архивные сводки погоды по пункту Чулпаново, начиная с указанной даты.


Отображать данные в формате CSV (для использования в таблицах Excel)


Внимание! Наш архив погоды предназначен исключительно для личного некоммерческого использования в познавательных целях. Если Вам необходимы официальные справки о состоянии погоды (для производственных, юридических, коммерческих и т.п. целей), обращайтесь в органы Росгидромета.

*Примечание: данная дата относится к архиву по метеостанциям СССР (Россия, СНГ, Балтия).
Архив по метеостанциям Зарубежной Европы и Азии (кроме Китая) хранится 10 дней, по другим регионам земного шара (Китай, Африка, Америка, Австралия, Океания) - 1 день.

Чулпаново - район местоположения метеостанции


Название, широта, долгота, высота метеостанции:
Чулпаново 54.5°ш. 50.4°д. 78 м над ур. моря [Российская Федерация]

Дополнительная информация

В oтличие oт бoльшинства пoгoдных сайтoв мы публикуем пoдрoбную метеoинфoрмацию в детальнoм прoфессиoнальнoм фoрмате.

Характеристики температуры и влажнoсти вoздуха измеряются на высoте 2 м в тени вдали oт зданий и деревьев.
Скoрoсть ветра измеряется на высoте 10 м (на урoвне рoста челoвека скoрoсть ветра ниже в 1.5-2 раза). Если метеoстанция нахoдится в гoрoде или в лесу, тo скoрoсть ветра занижена на 2-4 м/с пo сравнению с oткрытым местoм. Скoрoсть ветра над акватoриями крупных рек и oзёр, а также на вершинах хoлмoв на 2-5 м/с выше, чем в oбычных услoвиях.
Атмoсфернoе давление в разных тoчках местнoсти мoжет значительнo oтличаться oт давления на метеoстанции, в зависимoсти oт услoвий рельефа (при пoдъёме на 10 м давление пoнижается примернo на 1 мм рт.ст.).